OAL903 LGSR-LGKP

Flight info

Callsign OAL903
Flight time N/A
Altitude 11000
Route KUPIS N132 NIBOX
Aircraft SR22/L-V/N

Departure

Time N/A
Airport Santorini International Airport (LGSR)

Arrival

Time 2026-05-03 20:41
Airport Karpathos Airport (LGKP)
Time Latitude Longitude Altitude Speed Heading
2026-05-03 20:15 35.70822 26.51732 10962 ft 220 kts 133°
2026-05-03 20:15 35.69712 26.53034 10969 ft 220 kts 134°
2026-05-03 20:15 35.68611 26.54340 10970 ft 220 kts 133°
2026-05-03 20:15 35.67525 26.55664 10969 ft 220 kts 133°
2026-05-03 20:16 35.66420 26.56970 10966 ft 220 kts 133°
2026-05-03 20:16 35.65312 26.58278 10966 ft 220 kts 134°
2026-05-03 20:16 35.64206 26.59584 10967 ft 221 kts 133°
2026-05-03 20:16 35.63102 26.60895 10968 ft 221 kts 134°
2026-05-03 20:17 35.62012 26.62190 10969 ft 221 kts 133°
2026-05-03 20:17 35.60907 26.63499 10968 ft 221 kts 134°
2026-05-03 20:17 35.59800 26.64816 10969 ft 221 kts 134°
2026-05-03 20:17 35.58693 26.66131 10969 ft 221 kts 134°
2026-05-03 20:18 35.57586 26.67446 10966 ft 222 kts 134°
2026-05-03 20:18 35.56477 26.68762 10966 ft 222 kts 134°
2026-05-03 20:18 35.55368 26.70078 10966 ft 222 kts 134°
2026-05-03 20:18 35.54224 26.71357 10963 ft 223 kts 136°
2026-05-03 20:19 35.53068 26.72623 10964 ft 223 kts 136°
2026-05-03 20:19 35.51912 26.73893 10961 ft 223 kts 137°
2026-05-03 20:19 35.50756 26.75164 10956 ft 223 kts 137°
2026-05-03 20:19 35.49604 26.76434 10956 ft 223 kts 136°
2026-05-03 20:20 35.48454 26.77705 10954 ft 223 kts 136°
2026-05-03 20:20 35.47311 26.78988 10949 ft 223 kts 136°
2026-05-03 20:20 35.46167 26.80271 10946 ft 223 kts 136°
2026-05-03 20:20 35.45022 26.81555 10944 ft 223 kts 136°
2026-05-03 20:21 35.43891 26.82821 10942 ft 223 kts 136°
2026-05-03 20:21 35.42786 26.84155 10938 ft 222 kts 130°
2026-05-03 20:21 35.41742 26.85552 10937 ft 222 kts 132°
2026-05-03 20:21 35.40629 26.86880 10873 ft 226 kts 136°
2026-05-03 20:22 35.39456 26.88184 10657 ft 225 kts 138°
2026-05-03 20:22 35.38313 26.89450 10367 ft 217 kts 137°
2026-05-03 20:22 35.37231 26.90698 10112 ft 211 kts 136°
2026-05-03 20:22 35.36194 26.91928 9845 ft 203 kts 130°
2026-05-03 20:23 35.35476 26.93384 9552 ft 197 kts 103°
2026-05-03 20:23 35.35217 26.94976 9283 ft 185 kts 81°
2026-05-03 20:23 35.35373 26.96472 9040 ft 170 kts 60°
2026-05-03 20:23 35.35809 26.97732 8821 ft 159 kts 49°
2026-05-03 20:24 35.36273 26.98958 8608 ft 158 kts 49°
2026-05-03 20:24 35.36743 27.00190 8398 ft 163 kts 49°
2026-05-03 20:24 35.37235 27.01478 8176 ft 170 kts 51°
2026-05-03 20:24 35.37735 27.02813 7947 ft 174 kts 51°
2026-05-03 20:25 35.38243 27.04175 7709 ft 176 kts 51°
2026-05-03 20:25 35.38755 27.05545 7473 ft 177 kts 51°
2026-05-03 20:25 35.39271 27.06919 7235 ft 177 kts 51°
2026-05-03 20:25 35.39787 27.08292 6998 ft 177 kts 52°
2026-05-03 20:26 35.40301 27.09664 6766 ft 177 kts 51°
2026-05-03 20:26 35.40816 27.11036 6533 ft 177 kts 52°
2026-05-03 20:26 35.41331 27.12409 6290 ft 177 kts 51°
2026-05-03 20:26 35.41845 27.13777 6050 ft 176 kts 51°
2026-05-03 20:27 35.42249 27.15219 5811 ft 186 kts 67°
2026-05-03 20:27 35.42388 27.16790 5610 ft 187 kts 71°
2026-05-03 20:27 35.42546 27.18365 5378 ft 185 kts 70°
2026-05-03 20:27 35.42710 27.19931 5148 ft 185 kts 70°
2026-05-03 20:28 35.42866 27.21492 4937 ft 184 kts 71°
2026-05-03 20:28 35.43020 27.23046 4723 ft 183 kts 70°
2026-05-03 20:28 35.43173 27.24597 4504 ft 183 kts 70°
2026-05-03 20:28 35.43327 27.26141 4314 ft 182 kts 70°
2026-05-03 20:29 35.43482 27.27682 4075 ft 182 kts 70°
2026-05-03 20:29 35.43635 27.29219 3839 ft 181 kts 70°
2026-05-03 20:29 35.43788 27.30754 3599 ft 181 kts 71°
2026-05-03 20:29 35.43941 27.32289 3367 ft 181 kts 71°
2026-05-03 20:30 35.44093 27.33816 3145 ft 181 kts 71°
2026-05-03 20:30 35.44244 27.35343 2934 ft 180 kts 71°
2026-05-03 20:30 35.44392 27.36867 2723 ft 181 kts 72°
2026-05-03 20:30 35.44204 27.38439 2460 ft 199 kts 110°
2026-05-03 20:31 35.43238 27.39592 2395 ft 191 kts 160°
2026-05-03 20:31 35.42029 27.39756 2398 ft 163 kts 206°
2026-05-03 20:31 35.40955 27.39466 2404 ft 159 kts 201°
2026-05-03 20:31 35.39880 27.39235 2402 ft 156 kts 203°
2026-05-03 20:32 35.38829 27.38988 2401 ft 152 kts 206°
2026-05-03 20:32 35.37808 27.38694 2403 ft 149 kts 209°
2026-05-03 20:32 35.36818 27.38354 2400 ft 146 kts 212°
2026-05-03 20:32 35.35827 27.37957 2416 ft 159 kts 212°
2026-05-03 20:33 35.34749 27.37459 2424 ft 171 kts 215°
2026-05-03 20:33 35.34035 27.37084 2425 ft 168 kts 218°
2026-05-03 20:33 35.32987 27.36457 2426 ft 166 kts 221°
2026-05-03 20:33 35.31680 27.35499 2417 ft 157 kts 234°
2026-05-03 20:34 35.31287 27.34829 2404 ft 139 kts 262°
2026-05-03 20:34 35.31203 27.33728 2407 ft 125 kts 288°
2026-05-03 20:34 35.31562 27.32806 2412 ft 122 kts 309°
2026-05-03 20:34 35.32077 27.31955 2414 ft 126 kts 307°
2026-05-03 20:35 35.32603 27.31062 2365 ft 132 kts 308°
2026-05-03 20:35 35.33147 27.30135 2275 ft 136 kts 307°
2026-05-03 20:35 35.33703 27.29185 2191 ft 138 kts 307°
2026-05-03 20:35 35.34267 27.28223 2098 ft 140 kts 307°
2026-05-03 20:36 35.34806 27.27321 1999 ft 119 kts 308°
2026-05-03 20:36 35.35263 27.26550 1914 ft 105 kts 307°
2026-05-03 20:36 35.35669 27.25856 1843 ft 95 kts 307°
2026-05-03 20:36 35.36038 27.25218 1773 ft 89 kts 307°
2026-05-03 20:37 35.36386 27.24619 1720 ft 84 kts 307°
2026-05-03 20:37 35.36731 27.24019 1675 ft 90 kts 307°
2026-05-03 20:37 35.37107 27.23374 1632 ft 96 kts 306°
2026-05-03 20:37 35.37506 27.22693 1621 ft 100 kts 307°
2026-05-03 20:38 35.37976 27.21986 1413 ft 107 kts 307°
2026-05-03 20:38 35.38368 27.21212 1277 ft 106 kts 303°
2026-05-03 20:38 35.38771 27.20446 1067 ft 109 kts 308°
2026-05-03 20:38 35.39239 27.19668 798 ft 117 kts 305°
2026-05-03 20:39 35.39658 27.18907 725 ft 104 kts 305°
2026-05-03 20:39 35.40068 27.18224 632 ft 96 kts 303°
2026-05-03 20:39 35.40445 27.17566 438 ft 91 kts 304°
2026-05-03 20:39 35.40757 27.16992 361 ft 71 kts 303°
2026-05-03 20:40 35.41055 27.16490 286 ft 69 kts 298°
2026-05-03 20:40 35.41319 27.15996 209 ft 64 kts 302°
2026-05-03 20:40 35.41568 27.15558 117 ft 57 kts 301°
2026-05-03 20:40 35.41788 27.15165 64 ft 51 kts 300°
2026-05-03 20:41 35.41957 27.14878 51 ft 34 kts 301°
2026-05-03 20:41 35.42065 27.14663 55 ft 26 kts 304°
2026-05-03 20:41 35.42151 27.14507 56 ft 18 kts 304°
2026-05-03 20:41 35.42227 27.14372 56 ft 25 kts 306°
2026-05-03 20:42 35.42323 27.14203 55 ft 21 kts 304°
2026-05-03 20:42 35.42395 27.14073 50 ft 14 kts 305°
2026-05-03 20:42 35.42472 27.14069 53 ft 15 kts 58°
2026-05-03 20:42 35.42546 27.14215 54 ft 25 kts 57°
2026-05-03 20:43 35.42625 27.14369 54 ft 22 kts 58°
2026-05-03 20:43 35.42695 27.14533 54 ft 17 kts 90°
2026-05-03 20:43 35.42636 27.14615 54 ft 15 kts 136°
2026-05-03 20:43 35.42620 27.14707 53 ft 11 kts 30°
2026-05-03 20:44 35.42636 27.14765 54 ft 9 kts 119°
2026-05-03 20:44 35.42648 27.14809 54 ft 4 kts 358°
2026-05-03 20:44 35.42667 27.14791 54 ft 2 kts 311°
2026-05-03 20:44 35.42674 27.14783 54 ft 0 kts 310°
2026-05-03 20:45 35.42675 27.14781 54 ft 0 kts 313°